Time,TemperatureF,DewpointF,PressureIn,WindDirection,WindDirectionDegrees,WindSpeedMPH,WindSpeedGustMPH,Humidity,HourlyPrecipIn,Conditions,Clouds,dailyrainin,SolarRadiationWatts/m^2,SoftwareType,DateUTC
2013-05-26 00:03:00,48.8,39.1,30.13,NNW,333,0.0,0.0,69,0.00,,,0.00,0,WeatherCatV1.20B467,2013-05-25 23:03:00,
2013-05-26 00:08:00,48.7,39.0,30.13,NNW,333,0.0,0.0,69,0.00,,,0.00,0,WeatherCatV1.20B467,2013-05-25 23:08:00,
2013-05-26 00:13:00,48.6,38.9,30.12,NNW,333,0.0,1.0,69,0.00,,,0.00,0,WeatherCatV1.20B467,2013-05-25 23:13:00,
2013-05-26 00:18:00,48.5,38.8,30.13,NNW,333,0.0,1.0,69,0.00,,,0.00,0,WeatherCatV1.20B467,2013-05-25 23:18:00,
2013-05-26 00:23:00,48.5,38.8,30.12,NNW,333,0.0,1.0,69,0.00,,,0.00,0,WeatherCatV1.20B467,2013-05-25 23:23:00,
2013-05-26 00:28:00,48.5,38.8,30.12,NNW,333,1.0,1.0,69,0.00,,,0.00,0,WeatherCatV1.20B467,2013-05-25 23:28:00,
2013-05-26 00:33:00,48.5,38.8,30.12,NNW,333,0.0,1.0,69,0.00,,,0.00,0,WeatherCatV1.20B467,2013-05-25 23:33:00,
2013-05-26 00:38:00,48.5,38.8,30.12,NNW,346,0.0,1.0,69,0.00,,,0.00,0,WeatherCatV1.20B467,2013-05-25 23:38:00,
2013-05-26 00:43:00,48.4,38.7,30.12,NNW,346,0.0,2.0,69,0.00,,,0.00,0,WeatherCatV1.20B467,2013-05-25 23:43:00,
2013-05-26 00:48:00,48.3,38.6,30.12,NNW,346,0.0,1.0,69,0.00,,,0.00,0,WeatherCatV1.20B467,2013-05-25 23:48:00,
2013-05-26 00:53:00,48.3,39.0,30.12,NNW,346,0.0,1.0,70,0.00,,,0.00,0,WeatherCatV1.20B467,2013-05-25 23:53:00,
2013-05-26 00:58:00,48.3,39.0,30.12,NNW,345,0.0,0.0,70,0.00,,,0.00,0,WeatherCatV1.20B467,2013-05-25 23:58:00,
2013-05-26 01:03:00,48.1,38.8,30.12,NNW,345,0.0,1.0,70,0.00,,,0.00,0,WeatherCatV1.20B467,2013-05-26 00:03:00,
2013-05-26 01:08:00,48.1,38.8,30.12,NNW,345,0.0,1.0,70,0.00,,,0.00,0,WeatherCatV1.20B467,2013-05-26 00:08:00,
2013-05-26 01:13:00,48.1,38.8,30.12,NNW,345,0.0,2.0,70,0.00,,,0.00,0,WeatherCatV1.20B467,2013-05-26 00:13:00,
2013-05-26 01:18:00,48.1,38.8,30.12,NNW,345,0.0,0.0,70,0.00,,,0.00,0,WeatherCatV1.20B467,2013-05-26 00:18:00,
2013-05-26 01:23:00,48.1,38.8,30.11,NNW,334,0.0,1.0,70,0.00,,,0.00,0,WeatherCatV1.20B467,2013-05-26 00:23:00,
2013-05-26 01:28:00,48.0,39.1,30.11,NNW,334,0.0,0.0,71,0.00,,,0.00,0,WeatherCatV1.20B467,2013-05-26 00:28:00,
2013-05-26 01:33:00,47.8,38.9,30.11,NNW,333,0.0,1.0,71,0.00,,,0.00,0,WeatherCatV1.20B467,2013-05-26 00:33:00,
2013-05-26 01:38:00,47.7,39.1,30.11,NNE,12,0.0,0.0,72,0.00,,,0.00,0,WeatherCatV1.20B467,2013-05-26 00:38:00,
2013-05-26 01:43:00,47.6,39.0,30.11,NW,315,0.0,1.0,72,0.00,,,0.00,0,WeatherCatV1.20B467,2013-05-26 00:43:00,
2013-05-26 01:48:00,47.6,39.0,30.11,NW,315,0.0,1.0,72,0.00,,,0.00,0,WeatherCatV1.20B467,2013-05-26 00:48:00,
2013-05-26 01:53:00,47.6,39.0,30.11,NW,315,0.0,1.0,72,0.00,,,0.00,0,WeatherCatV1.20B467,2013-05-26 00:53:00,
2013-05-26 01:58:00,47.6,39.0,30.11,NW,315,0.0,1.0,72,0.00,,,0.00,0,WeatherCatV1.20B467,2013-05-26 00:58:00,
2013-05-26 02:03:00,47.5,39.3,30.11,NW,308,0.0,2.0,73,0.00,,,0.00,0,WeatherCatV1.20B467,2013-05-26 01:03:00,
2013-05-26 02:08:00,47.6,39.4,30.11,West,272,0.0,0.0,73,0.00,,,0.00,0,WeatherCatV1.20B467,2013-05-26 01:08:00,
2013-05-26 02:13:00,47.5,39.3,30.11,NNE,33,0.0,1.0,73,0.00,,,0.00,0,WeatherCatV1.20B467,2013-05-26 01:13:00,
2013-05-26 02:18:00,47.5,39.3,30.11,NE,55,0.0,0.0,73,0.00,,,0.00,0,WeatherCatV1.20B467,2013-05-26 01:18:00,
2013-05-26 02:23:00,47.3,39.1,30.11,NNW,331,1.0,2.0,73,0.00,,,0.00,0,WeatherCatV1.20B467,2013-05-26 01:23:00,
2013-05-26 02:28:00,47.2,39.3,30.11,NNW,332,0.0,1.0,74,0.00,,,0.00,0,WeatherCatV1.20B467,2013-05-26 01:28:00,
2013-05-26 02:33:00,47.2,39.3,30.11,North,0,0.0,1.0,74,0.00,,,0.00,0,WeatherCatV1.20B467,2013-05-26 01:33:00,
2013-05-26 02:38:00,47.1,39.2,30.11,NNW,341,0.0,1.0,74,0.00,,,0.00,0,WeatherCatV1.20B467,2013-05-26 01:38:00,
2013-05-26 02:43:00,46.9,39.4,30.11,NW,323,1.0,2.0,75,0.00,,,0.00,0,WeatherCatV1.20B467,2013-05-26 01:43:00,
2013-05-26 02:48:00,46.8,39.3,30.11,NW,323,0.0,1.0,75,0.00,,,0.00,0,WeatherCatV1.20B467,2013-05-26 01:48:00,
2013-05-26 02:53:00,46.6,39.4,30.11,NNE,30,0.0,2.0,76,0.00,,,0.00,0,WeatherCatV1.20B467,2013-05-26 01:53:00,
2013-05-26 02:58:00,46.4,39.6,30.11,NNW,338,0.0,1.0,77,0.00,,,0.00,0,WeatherCatV1.20B467,2013-05-26 01:58:00,
2013-05-26 03:03:00,46.3,39.5,30.11,North,355,0.0,1.0,77,0.00,,,0.00,0,WeatherCatV1.20B467,2013-05-26 02:03:00,
2013-05-26 03:08:00,46.2,39.4,30.11,NW,314,0.0,1.0,77,0.00,,,0.00,0,WeatherCatV1.20B467,2013-05-26 02:08:00,
2013-05-26 03:13:00,46.1,39.6,30.11,NW,323,1.0,1.0,78,0.00,,,0.00,0,WeatherCatV1.20B467,2013-05-26 02:13:00,
2013-05-26 03:18:00,46.0,39.5,30.11,NW,323,0.0,0.0,78,0.00,,,0.00,0,WeatherCatV1.20B467,2013-05-26 02:18:00,
2013-05-26 03:23:00,45.9,39.4,30.11,NNW,331,0.0,1.0,78,0.00,,,0.00,0,WeatherCatV1.20B467,2013-05-26 02:23:00,
2013-05-26 03:28:00,45.9,39.4,30.11,WNW,288,1.0,1.0,78,0.00,,,0.00,0,WeatherCatV1.20B467,2013-05-26 02:28:00,
2013-05-26 03:33:00,45.9,39.4,30.11,WNW,298,1.0,1.0,78,0.00,,,0.00,0,WeatherCatV1.20B467,2013-05-26 02:33:00,
2013-05-26 03:38:00,45.8,39.3,30.10,NNW,343,0.0,0.0,78,0.00,,,0.00,0,WeatherCatV1.20B467,2013-05-26 02:38:00,
2013-05-26 03:43:00,45.7,39.2,30.10,NNW,340,0.0,2.0,78,0.00,,,0.00,0,WeatherCatV1.20B467,2013-05-26 02:43:00,
2013-05-26 03:48:00,45.7,39.2,30.11,NW,304,0.0,2.0,78,0.00,,,0.00,0,WeatherCatV1.20B467,2013-05-26 02:48:00,
2013-05-26 03:53:00,45.6,39.5,30.11,SW,214,1.0,3.0,79,0.00,,,0.00,0,WeatherCatV1.20B467,2013-05-26 02:53:00,
2013-05-26 03:58:00,45.6,39.1,30.11,West,270,0.0,2.0,78,0.00,,,0.00,0,WeatherCatV1.20B467,2013-05-26 02:58:00,
2013-05-26 04:03:00,45.4,39.3,30.10,NW,319,3.0,3.0,79,0.00,,,0.00,0,WeatherCatV1.20B467,2013-05-26 03:03:00,
2013-05-26 04:08:00,45.3,39.2,30.10,WNW,291,0.0,3.0,79,0.00,,,0.00,0,WeatherCatV1.20B467,2013-05-26 03:08:00,
2013-05-26 04:13:00,45.2,38.8,30.10,NE,42,0.0,1.0,78,0.00,,,0.00,0,WeatherCatV1.20B467,2013-05-26 03:13:00,
2013-05-26 04:18:00,45.2,38.8,30.10,NNW,328,0.0,2.0,78,0.00,,,0.00,0,WeatherCatV1.20B467,2013-05-26 03:18:00,
2013-05-26 04:23:00,45.2,38.8,30.11,NNW,338,0.0,5.0,78,0.00,,,0.00,0,WeatherCatV1.20B467,2013-05-26 03:23:00,
2013-05-26 04:28:00,45.2,38.8,30.11,NW,326,0.0,6.0,78,0.00,,,0.00,0,WeatherCatV1.20B467,2013-05-26 03:28:00,
2013-05-26 04:33:00,45.1,38.3,30.11,NE,34,0.0,4.0,77,0.00,,,0.00,0,WeatherCatV1.20B467,2013-05-26 03:33:00,
2013-05-26 04:38:00,45.0,38.2,30.11,NNE,17,0.0,2.0,77,0.00,,,0.00,0,WeatherCatV1.20B467,2013-05-26 03:38:00,
2013-05-26 04:43:00,44.8,38.0,30.10,NW,311,0.0,1.0,77,0.00,,,0.00,0,WeatherCatV1.20B467,2013-05-26 03:43:00,
2013-05-26 04:48:00,44.7,38.3,30.11,NW,313,0.0,1.0,78,0.00,,,0.00,0,WeatherCatV1.20B467,2013-05-26 03:48:00,
2013-05-26 04:53:00,44.6,38.2,30.11,WNW,298,1.0,3.0,78,0.00,,,0.00,0,WeatherCatV1.20B467,2013-05-26 03:53:00,
2013-05-26 04:58:00,44.5,37.7,30.10,NNW,344,0.0,3.0,77,0.00,,,0.00,0,WeatherCatV1.20B467,2013-05-26 03:58:00,
2013-05-26 05:01:00,44.5,37.7,30.11,North,9,0.0,2.0,77,0.00,,,0.00,5,WeatherCatV1.20B467,2013-05-26 04:01:00,
2013-05-26 05:06:00,44.5,37.7,30.11,NW,324,0.0,2.0,77,0.00,,,0.00,7,WeatherCatV1.20B467,2013-05-26 04:06:00,
2013-05-26 05:11:00,44.5,37.4,30.11,NNW,336,0.0,2.0,76,0.00,,,0.00,9,WeatherCatV1.20B467,2013-05-26 04:11:00,
2013-05-26 05:16:00,44.6,37.5,30.11,NNE,15,1.0,1.0,76,0.00,,,0.00,11,WeatherCatV1.20B467,2013-05-26 04:16:00,
2013-05-26 05:21:00,44.6,37.5,30.11,WNW,302,2.0,2.0,76,0.00,,,0.00,12,WeatherCatV1.20B467,2013-05-26 04:21:00,
2013-05-26 05:26:00,44.7,37.3,30.10,North,350,2.0,2.0,75,0.00,,,0.00,14,WeatherCatV1.20B467,2013-05-26 04:26:00,
2013-05-26 05:31:00,44.7,37.3,30.11,NNW,328,4.0,4.0,75,0.00,,,0.00,18,WeatherCatV1.20B467,2013-05-26 04:31:00,
2013-05-26 05:36:00,44.8,37.4,30.10,NNW,327,0.0,3.0,75,0.00,,,0.00,19,WeatherCatV1.20B467,2013-05-26 04:36:00,
2013-05-26 05:41:00,44.9,37.5,30.10,WNW,285,1.0,2.0,75,0.00,,,0.00,23,WeatherCatV1.20B467,2013-05-26 04:41:00,
2013-05-26 05:46:00,44.9,37.5,30.11,NNW,327,1.0,3.0,75,0.00,,,0.00,26,WeatherCatV1.20B467,2013-05-26 04:46:00,
2013-05-26 05:51:00,44.9,37.5,30.11,SE,127,2.0,2.0,75,0.00,,,0.00,28,WeatherCatV1.20B467,2013-05-26 04:51:00,
2013-05-26 05:56:00,44.9,37.5,30.11,ESE,110,1.0,1.0,75,0.00,,,0.00,32,WeatherCatV1.20B467,2013-05-26 04:56:00,
2013-05-26 06:01:00,44.8,37.4,30.11,NE,44,0.0,4.0,75,0.00,,,0.00,33,WeatherCatV1.20B467,2013-05-26 05:01:00,
2013-05-26 06:06:00,44.8,37.4,30.11,SSW,212,0.0,0.0,75,0.00,,,0.00,40,WeatherCatV1.20B467,2013-05-26 05:06:00,
2013-05-26 06:11:00,44.8,37.4,30.11,SW,221,0.0,1.0,75,0.00,,,0.00,42,WeatherCatV1.20B467,2013-05-26 05:11:00,
2013-05-26 06:16:00,44.9,37.1,30.11,WNW,298,0.0,1.0,74,0.00,,,0.00,44,WeatherCatV1.20B467,2013-05-26 05:16:00,
2013-05-26 06:21:00,45.0,36.9,30.11,East,100,1.0,3.0,73,0.00,,,0.00,53,WeatherCatV1.20B467,2013-05-26 05:21:00,
2013-05-26 06:26:00,45.2,37.1,30.11,WNW,292,0.0,1.0,73,0.00,,,0.00,53,WeatherCatV1.20B467,2013-05-26 05:26:00,
2013-05-26 06:31:00,45.5,37.0,30.11,NW,312,1.0,3.0,72,0.00,,,0.00,56,WeatherCatV1.20B467,2013-05-26 05:31:00,
2013-05-26 06:36:00,45.7,37.2,30.11,SW,234,1.0,3.0,72,0.00,,,0.00,63,WeatherCatV1.20B467,2013-05-26 05:36:00,
2013-05-26 06:41:00,45.9,37.0,30.11,NNE,13,0.0,3.0,71,0.00,,,0.00,74,WeatherCatV1.20B467,2013-05-26 05:41:00,
2013-05-26 06:46:00,46.1,37.2,30.11,NNE,15,2.0,2.0,71,0.00,,,0.00,91,WeatherCatV1.20B467,2013-05-26 05:46:00,
2013-05-26 06:51:00,46.4,37.5,30.11,NW,311,0.0,3.0,71,0.00,,,0.00,230,WeatherCatV1.20B467,2013-05-26 05:51:00,
2013-05-26 06:56:00,46.8,37.5,30.11,NNW,344,0.0,1.0,70,0.00,,,0.00,248,WeatherCatV1.20B467,2013-05-26 05:56:00,
2013-05-26 07:01:00,47.4,37.4,30.11,SW,232,0.0,0.0,68,0.00,,,0.00,262,WeatherCatV1.20B467,2013-05-26 06:01:00,
2013-05-26 07:06:00,47.9,37.1,30.11,South,188,1.0,4.0,66,0.00,,,0.00,278,WeatherCatV1.20B467,2013-05-26 06:06:00,
2013-05-26 07:11:00,48.4,37.2,30.11,SW,225,2.0,3.0,65,0.00,,,0.00,294,WeatherCatV1.20B467,2013-05-26 06:11:00,
2013-05-26 07:16:00,48.8,37.2,30.11,East,94,0.0,2.0,64,0.00,,,0.00,302,WeatherCatV1.20B467,2013-05-26 06:16:00,
2013-05-26 07:21:00,49.2,37.1,30.11,NW,314,1.0,1.0,63,0.00,,,0.00,278,WeatherCatV1.20B467,2013-05-26 06:21:00,
2013-05-26 07:26:00,49.5,37.0,30.11,NW,307,0.0,2.0,62,0.00,,,0.00,288,WeatherCatV1.20B467,2013-05-26 06:26:00,
2013-05-26 07:31:00,49.7,37.2,30.11,WSW,245,0.0,2.0,62,0.00,,,0.00,292,WeatherCatV1.20B467,2013-05-26 06:31:00,
2013-05-26 07:36:00,49.8,37.3,30.11,WNW,291,0.0,2.0,62,0.00,,,0.00,322,WeatherCatV1.20B467,2013-05-26 06:36:00,
2013-05-26 07:41:00,50.1,37.6,30.11,ENE,71,2.0,2.0,62,0.00,,,0.00,341,WeatherCatV1.20B467,2013-05-26 06:41:00,
2013-05-26 07:46:00,50.6,37.7,30.11,West,262,1.0,3.0,61,0.00,,,0.00,350,WeatherCatV1.20B467,2013-05-26 06:46:00,
2013-05-26 07:51:00,51.0,37.6,30.11,NW,319,2.0,2.0,60,0.00,,,0.00,348,WeatherCatV1.20B467,2013-05-26 06:51:00,
2013-05-26 07:56:00,51.2,37.4,30.11,NNE,24,2.0,2.0,59,0.00,,,0.00,404,WeatherCatV1.20B467,2013-05-26 06:56:00,
2013-05-26 08:01:00,51.6,37.7,30.11,NW,321,2.0,4.0,59,0.00,,,0.00,415,WeatherCatV1.20B467,2013-05-26 07:01:00,
2013-05-26 08:06:00,52.2,37.9,30.11,East,97,0.0,2.0,58,0.00,,,0.00,427,WeatherCatV1.20B467,2013-05-26 07:06:00,
2013-05-26 08:11:00,52.5,38.2,30.11,NW,314,0.0,4.0,58,0.00,,,0.00,431,WeatherCatV1.20B467,2013-05-26 07:11:00,
2013-05-26 08:16:00,53.0,38.2,30.11,SSE,149,1.0,3.0,57,0.00,,,0.00,431,WeatherCatV1.20B467,2013-05-26 07:16:00,
2013-05-26 08:21:00,53.0,37.3,30.11,North,0,0.0,3.0,55,0.00,,,0.00,466,WeatherCatV1.20B467,2013-05-26 07:21:00,
2013-05-26 08:26:00,53.3,37.1,30.11,SW,229,0.0,4.0,54,0.00,,,0.00,457,WeatherCatV1.20B467,2013-05-26 07:26:00,
2013-05-26 08:31:00,53.7,37.9,30.11,NNW,344,0.0,2.0,55,0.00,,,0.00,441,WeatherCatV1.20B467,2013-05-26 07:31:00,
2013-05-26 08:36:00,53.7,37.5,30.11,SE,144,0.0,1.0,54,0.00,,,0.00,462,WeatherCatV1.20B467,2013-05-26 07:36:00,
2013-05-26 08:41:00,54.0,37.3,30.11,NW,316,0.0,4.0,53,0.00,,,0.00,452,WeatherCatV1.20B467,2013-05-26 07:41:00,
2013-05-26 08:46:00,54.1,38.3,30.11,NNW,328,1.0,3.0,55,0.00,,,0.00,431,WeatherCatV1.20B467,2013-05-26 07:46:00,
2013-05-26 08:51:00,54.2,37.9,30.11,NNW,335,0.0,3.0,54,0.00,,,0.00,454,WeatherCatV1.20B467,2013-05-26 07:51:00,
2013-05-26 08:56:00,54.4,38.1,30.11,SSE,155,1.0,3.0,54,0.00,,,0.00,487,WeatherCatV1.20B467,2013-05-26 07:56:00,
2013-05-26 09:01:00,54.8,38.5,30.10,NNW,339,0.0,4.0,54,0.00,,,0.00,538,WeatherCatV1.20B467,2013-05-26 08:01:00,
2013-05-26 09:06:00,55.0,38.2,30.10,WNW,301,3.0,5.0,53,0.00,,,0.00,580,WeatherCatV1.20B467,2013-05-26 08:06:00,
2013-05-26 09:11:00,55.3,38.5,30.10,North,355,2.0,6.0,53,0.00,,,0.00,582,WeatherCatV1.20B467,2013-05-26 08:11:00,
2013-05-26 09:16:00,55.6,38.3,30.11,East,82,1.0,3.0,52,0.00,,,0.00,591,WeatherCatV1.20B467,2013-05-26 08:16:00,
2013-05-26 09:21:00,55.9,38.0,30.10,NW,315,1.0,2.0,51,0.00,,,0.00,608,WeatherCatV1.20B467,2013-05-26 08:21:00,
2013-05-26 09:26:00,56.3,37.9,30.10,SW,214,2.0,4.0,50,0.00,,,0.00,601,WeatherCatV1.20B467,2013-05-26 08:26:00,
2013-05-26 09:31:00,56.5,37.6,30.10,North,349,4.0,5.0,49,0.00,,,0.00,605,WeatherCatV1.20B467,2013-05-26 08:31:00,
2013-05-26 09:36:00,56.3,35.8,30.11,ENE,69,0.0,1.0,46,0.00,,,0.00,534,WeatherCatV1.20B467,2013-05-26 08:36:00,
2013-05-26 09:41:00,56.8,36.8,30.11,WNW,283,4.0,6.0,47,0.00,,,0.00,591,WeatherCatV1.20B467,2013-05-26 08:41:00,
2013-05-26 09:46:00,57.0,36.4,30.10,NNW,342,2.0,2.0,46,0.00,,,0.00,650,WeatherCatV1.20B467,2013-05-26 08:46:00,
2013-05-26 09:51:00,57.1,36.0,30.11,NW,324,1.0,5.0,45,0.00,,,0.00,613,WeatherCatV1.20B467,2013-05-26 08:51:00,
2013-05-26 09:56:00,57.1,36.5,30.11,NNW,336,0.0,3.0,46,0.00,,,0.00,591,WeatherCatV1.20B467,2013-05-26 08:56:00,
2013-05-26 10:01:00,57.6,37.0,30.11,NNW,338,0.0,6.0,46,0.00,,,0.00,564,WeatherCatV1.20B467,2013-05-26 09:01:00,
2013-05-26 10:06:00,57.8,37.7,30.10,North,5,0.0,4.0,47,0.00,,,0.00,459,WeatherCatV1.20B467,2013-05-26 09:06:00,
2013-05-26 10:11:00,57.9,38.3,30.10,ESE,106,2.0,3.0,48,0.00,,,0.00,526,WeatherCatV1.20B467,2013-05-26 09:11:00,
2013-05-26 10:16:00,57.7,37.1,30.10,West,263,0.0,3.0,46,0.00,,,0.00,527,WeatherCatV1.20B467,2013-05-26 09:16:00,
2013-05-26 10:21:00,57.7,38.1,30.10,NNW,331,1.0,2.0,48,0.00,,,0.00,545,WeatherCatV1.20B467,2013-05-26 09:21:00,
2013-05-26 10:26:00,57.8,38.8,30.10,NNW,330,2.0,5.0,49,0.00,,,0.00,566,WeatherCatV1.20B467,2013-05-26 09:26:00,
2013-05-26 10:31:00,57.9,39.4,30.10,NW,324,0.0,1.0,50,0.00,,,0.00,605,WeatherCatV1.20B467,2013-05-26 09:31:00,
2013-05-26 10:36:00,58.4,40.8,30.10,WNW,303,2.0,4.0,52,0.00,,,0.00,559,WeatherCatV1.20B467,2013-05-26 09:36:00,
2013-05-26 10:41:00,58.9,40.8,30.10,NW,305,1.0,5.0,51,0.00,,,0.00,650,WeatherCatV1.20B467,2013-05-26 09:41:00,
2013-05-26 10:46:00,59.0,40.4,30.10,NNW,331,3.0,5.0,50,0.00,,,0.00,638,WeatherCatV1.20B467,2013-05-26 09:46:00,
2013-05-26 10:51:00,58.9,40.8,30.10,WNW,296,2.0,3.0,51,0.00,,,0.00,686,WeatherCatV1.20B467,2013-05-26 09:51:00,
2013-05-26 10:56:00,59.2,42.1,30.09,NW,317,0.0,1.0,53,0.00,,,0.00,682,WeatherCatV1.20B467,2013-05-26 09:56:00,
2013-05-26 11:01:00,59.8,41.6,30.09,NNW,327,1.0,8.0,51,0.00,,,0.00,698,WeatherCatV1.20B467,2013-05-26 10:01:00,
2013-05-26 11:06:00,59.6,40.9,30.09,NW,325,10.0,10.0,50,0.00,,,0.00,698,WeatherCatV1.20B467,2013-05-26 10:06:00,
2013-05-26 11:11:00,59.1,41.0,30.09,NW,316,2.0,6.0,51,0.00,,,0.00,649,WeatherCatV1.20B467,2013-05-26 10:11:00,
2013-05-26 11:16:00,59.2,41.6,30.09,NW,304,5.0,5.0,52,0.00,,,0.00,751,WeatherCatV1.20B467,2013-05-26 10:16:00,
2013-05-26 11:17:00,59.3,41.7,30.09,NNW,340,6.0,6.0,52,0.00,,,0.00,756,WeatherCatV1.20B467,2013-05-26 10:17:00,
2013-05-26 11:22:00,59.4,41.8,30.09,NW,317,0.0,3.0,52,0.00,,,0.00,786,WeatherCatV1.20B467,2013-05-26 10:22:00,
2013-05-26 11:27:00,60.3,41.6,30.09,NW,305,0.0,3.0,50,0.00,,,0.00,814,WeatherCatV1.20B467,2013-05-26 10:27:00,
2013-05-26 11:32:00,60.6,41.9,30.09,NNW,330,1.0,6.0,50,0.00,,,0.00,824,WeatherCatV1.20B467,2013-05-26 10:32:00,
2013-05-26 11:37:00,61.0,42.2,30.09,NNW,344,0.0,7.0,50,0.00,,,0.00,821,WeatherCatV1.20B467,2013-05-26 10:37:00,
2013-05-26 11:42:00,60.7,40.9,30.09,WNW,302,2.0,4.0,48,0.00,,,0.00,805,WeatherCatV1.20B467,2013-05-26 10:42:00,
2013-05-26 11:47:00,60.7,40.9,30.09,SE,132,1.0,6.0,48,0.00,,,0.00,784,WeatherCatV1.20B467,2013-05-26 10:47:00,
2013-05-26 11:52:00,60.5,41.2,30.09,WNW,291,2.0,6.0,49,0.00,,,0.00,768,WeatherCatV1.20B467,2013-05-26 10:52:00,
2013-05-26 11:57:00,60.7,40.9,30.09,WNW,302,2.0,8.0,48,0.00,,,0.00,761,WeatherCatV1.20B467,2013-05-26 10:57:00,
2013-05-26 12:02:00,60.8,41.0,30.09,WNW,292,6.0,6.0,48,0.00,,,0.00,775,WeatherCatV1.20B467,2013-05-26 11:02:00,
2013-05-26 12:07:00,60.9,42.1,30.08,NNW,342,0.0,3.0,50,0.00,,,0.00,796,WeatherCatV1.20B467,2013-05-26 11:07:00,
2013-05-26 12:12:00,61.6,41.7,30.08,ENE,77,0.0,4.0,48,0.00,,,0.00,810,WeatherCatV1.20B467,2013-05-26 11:12:00,
2013-05-26 12:17:00,62.1,42.7,30.08,NW,311,1.0,2.0,49,0.00,,,0.00,807,WeatherCatV1.20B467,2013-05-26 11:17:00,
2013-05-26 12:22:00,62.5,40.9,30.08,NW,321,5.0,10.0,45,0.00,,,0.00,835,WeatherCatV1.20B467,2013-05-26 11:22:00,
2013-05-26 12:27:00,61.7,40.7,30.08,NNW,342,0.0,1.0,46,0.00,,,0.00,823,WeatherCatV1.20B467,2013-05-26 11:27:00,
2013-05-26 12:32:00,61.1,40.7,30.08,NNW,331,0.0,4.0,47,0.00,,,0.00,851,WeatherCatV1.20B467,2013-05-26 11:32:00,
2013-05-26 12:37:00,62.2,40.0,30.08,NW,315,1.0,4.0,44,0.00,,,0.00,877,WeatherCatV1.20B467,2013-05-26 11:37:00,
2013-05-26 12:42:00,62.3,39.5,30.08,NNE,23,1.0,3.0,43,0.00,,,0.00,851,WeatherCatV1.20B467,2013-05-26 11:42:00,
2013-05-26 12:47:00,62.7,39.9,30.08,NW,319,0.0,8.0,43,0.00,,,0.00,895,WeatherCatV1.20B467,2013-05-26 11:47:00,
2013-05-26 12:52:00,63.2,41.5,30.08,WNW,303,1.0,2.0,45,0.00,,,0.00,879,WeatherCatV1.20B467,2013-05-26 11:52:00,
2013-05-26 12:57:00,63.5,40.6,30.07,NW,304,0.0,2.0,43,0.00,,,0.00,863,WeatherCatV1.20B467,2013-05-26 11:57:00,
2013-05-26 13:02:00,63.4,39.9,30.07,WSW,239,1.0,8.0,42,0.00,,,0.00,886,WeatherCatV1.20B467,2013-05-26 12:02:00,
2013-05-26 13:07:00,62.8,40.0,30.07,NW,306,2.0,3.0,43,0.00,,,0.00,930,WeatherCatV1.20B467,2013-05-26 12:07:00,
2013-05-26 13:12:00,63.6,41.3,30.07,WNW,302,3.0,3.0,44,0.00,,,0.00,935,WeatherCatV1.20B467,2013-05-26 12:12:00,
2013-05-26 13:17:00,63.0,41.3,30.07,NW,307,0.0,6.0,45,0.00,,,0.00,888,WeatherCatV1.20B467,2013-05-26 12:17:00,
2013-05-26 13:22:00,63.7,42.5,30.07,NW,310,3.0,5.0,46,0.00,,,0.00,895,WeatherCatV1.20B467,2013-05-26 12:22:00,
2013-05-26 13:27:00,64.0,41.6,30.06,WNW,302,1.0,4.0,44,0.00,,,0.00,877,WeatherCatV1.20B467,2013-05-26 12:27:00,
2013-05-26 13:32:00,64.2,41.8,30.07,NNW,327,0.0,7.0,44,0.00,,,0.00,907,WeatherCatV1.20B467,2013-05-26 12:32:00,
2013-05-26 13:37:00,65.0,42.5,30.06,NNW,340,4.0,9.0,44,0.00,,,0.00,898,WeatherCatV1.20B467,2013-05-26 12:37:00,
2013-05-26 13:42:00,64.7,40.5,30.06,NW,313,4.0,8.0,41,0.00,,,0.00,151,WeatherCatV1.20B467,2013-05-26 12:42:00,
2013-05-26 13:47:00,64.0,41.0,30.06,NW,321,4.0,4.0,43,0.00,,,0.00,861,WeatherCatV1.20B467,2013-05-26 12:47:00,
2013-05-26 13:52:00,64.5,40.9,30.06,NW,308,3.0,3.0,42,0.00,,,0.00,759,WeatherCatV1.20B467,2013-05-26 12:52:00,
2013-05-26 13:57:00,63.9,37.8,30.06,NW,317,0.0,5.0,38,0.00,,,0.00,802,WeatherCatV1.20B467,2013-05-26 12:57:00,
2013-05-26 14:02:00,65.0,40.1,30.05,WSW,252,2.0,6.0,40,0.00,,,0.00,868,WeatherCatV1.20B467,2013-05-26 13:02:00,
2013-05-26 14:07:00,65.2,41.5,30.05,NNW,333,0.0,8.0,42,0.00,,,0.00,831,WeatherCatV1.20B467,2013-05-26 13:07:00,
2013-05-26 14:12:00,65.4,41.1,30.05,East,86,1.0,7.0,41,0.00,,,0.00,789,WeatherCatV1.20B467,2013-05-26 13:12:00,
2013-05-26 14:17:00,64.9,39.3,30.05,NW,306,3.0,6.0,39,0.00,,,0.00,816,WeatherCatV1.20B467,2013-05-26 13:17:00,
2013-05-26 14:22:00,63.9,39.1,30.05,NNW,328,2.0,8.0,40,0.00,,,0.00,793,WeatherCatV1.20B467,2013-05-26 13:22:00,
2013-05-26 14:27:00,64.9,40.6,30.05,WNW,299,3.0,5.0,41,0.00,,,0.00,802,WeatherCatV1.20B467,2013-05-26 13:27:00,
2013-05-26 14:32:00,66.0,40.3,30.05,NW,325,0.0,4.0,39,0.00,,,0.00,803,WeatherCatV1.20B467,2013-05-26 13:32:00,
2013-05-26 14:37:00,66.4,40.0,30.05,WNW,289,0.0,3.0,38,0.00,,,0.00,812,WeatherCatV1.20B467,2013-05-26 13:37:00,
2013-05-26 14:42:00,66.5,40.1,30.05,WNW,301,3.0,5.0,38,0.00,,,0.00,842,WeatherCatV1.20B467,2013-05-26 13:42:00,
2013-05-26 14:47:00,65.7,38.7,30.04,NNW,331,1.0,8.0,37,0.00,,,0.00,796,WeatherCatV1.20B467,2013-05-26 13:47:00,
2013-05-26 14:52:00,66.2,39.8,30.04,NW,319,6.0,7.0,38,0.00,,,0.00,803,WeatherCatV1.20B467,2013-05-26 13:52:00,
2013-05-26 14:57:00,66.2,39.2,30.04,North,355,1.0,3.0,37,0.00,,,0.00,824,WeatherCatV1.20B467,2013-05-26 13:57:00,
2013-05-26 15:02:00,66.2,39.2,30.04,NW,323,1.0,5.0,37,0.00,,,0.00,819,WeatherCatV1.20B467,2013-05-26 14:02:00,
2013-05-26 15:07:00,67.7,40.5,30.04,NW,323,3.0,6.0,37,0.00,,,0.00,812,WeatherCatV1.20B467,2013-05-26 14:07:00,
2013-05-26 15:12:00,66.2,39.2,30.04,NW,311,4.0,4.0,37,0.00,,,0.00,817,WeatherCatV1.20B467,2013-05-26 14:12:00,
2013-05-26 15:17:00,65.7,38.7,30.04,NW,313,1.0,3.0,37,0.00,,,0.00,761,WeatherCatV1.20B467,2013-05-26 14:17:00,
2013-05-26 15:22:00,66.1,37.6,30.04,WNW,284,4.0,6.0,35,0.00,,,0.00,737,WeatherCatV1.20B467,2013-05-26 14:22:00,
2013-05-26 15:27:00,66.1,36.9,30.03,NNW,342,4.0,4.0,34,0.00,,,0.00,765,WeatherCatV1.20B467,2013-05-26 14:27:00,
2013-05-26 15:32:00,66.1,37.6,30.03,NW,314,0.0,6.0,35,0.00,,,0.00,751,WeatherCatV1.20B467,2013-05-26 14:32:00,
2013-05-26 15:37:00,67.5,38.1,30.03,NE,44,0.0,5.0,34,0.00,,,0.00,766,WeatherCatV1.20B467,2013-05-26 14:37:00,
2013-05-26 15:42:00,68.4,38.9,30.03,NW,319,2.0,3.0,34,0.00,,,0.00,737,WeatherCatV1.20B467,2013-05-26 14:42:00,
2013-05-26 15:47:00,68.2,39.5,30.03,NW,320,2.0,6.0,35,0.00,,,0.00,749,WeatherCatV1.20B467,2013-05-26 14:47:00,
2013-05-26 15:52:00,67.5,38.1,30.02,NW,306,3.0,11.0,34,0.00,,,0.00,696,WeatherCatV1.20B467,2013-05-26 14:52:00,
2013-05-26 15:57:00,66.8,39.0,30.02,NW,318,6.0,7.0,36,0.00,,,0.00,686,WeatherCatV1.20B467,2013-05-26 14:57:00,
2013-05-26 16:02:00,66.1,38.4,30.02,WNW,289,2.0,5.0,36,0.00,,,0.00,687,WeatherCatV1.20B467,2013-05-26 15:02:00,
2013-05-26 16:07:00,66.4,38.6,30.02,NNW,331,4.0,6.0,36,0.00,,,0.00,694,WeatherCatV1.20B467,2013-05-26 15:07:00,
2013-05-26 16:12:00,66.7,39.6,30.02,NW,305,4.0,4.0,37,0.00,,,0.00,687,WeatherCatV1.20B467,2013-05-26 15:12:00,
2013-05-26 16:17:00,67.5,37.4,30.02,NW,315,3.0,5.0,33,0.00,,,0.00,647,WeatherCatV1.20B467,2013-05-26 15:17:00,
2013-05-26 16:22:00,67.4,38.1,30.02,NW,307,4.0,7.0,34,0.00,,,0.00,645,WeatherCatV1.20B467,2013-05-26 15:22:00,
2013-05-26 16:27:00,68.1,40.8,30.01,NW,309,0.0,3.0,37,0.00,,,0.00,638,WeatherCatV1.20B467,2013-05-26 15:27:00,
2013-05-26 16:32:00,67.0,37.7,30.01,NW,310,3.0,5.0,34,0.00,,,0.00,615,WeatherCatV1.20B467,2013-05-26 15:32:00,
2013-05-26 16:37:00,67.1,40.0,30.01,NW,309,3.0,5.0,37,0.00,,,0.00,592,WeatherCatV1.20B467,2013-05-26 15:37:00,
2013-05-26 16:42:00,65.9,38.9,30.01,WSW,257,2.0,5.0,37,0.00,,,0.00,592,WeatherCatV1.20B467,2013-05-26 15:42:00,
2013-05-26 16:47:00,67.6,39.7,30.01,NW,311,4.0,4.0,36,0.00,,,0.00,585,WeatherCatV1.20B467,2013-05-26 15:47:00,
2013-05-26 16:52:00,67.0,40.5,30.01,NNE,30,2.0,6.0,38,0.00,,,0.00,591,WeatherCatV1.20B467,2013-05-26 15:52:00,
2013-05-26 16:57:00,66.8,39.7,30.01,NW,306,2.0,3.0,37,0.00,,,0.00,571,WeatherCatV1.20B467,2013-05-26 15:57:00,
2013-05-26 17:02:00,66.4,39.3,30.01,NW,308,2.0,4.0,37,0.00,,,0.00,541,WeatherCatV1.20B467,2013-05-26 16:02:00,
2013-05-26 17:07:00,66.3,39.9,30.01,NW,321,3.0,5.0,38,0.00,,,0.00,512,WeatherCatV1.20B467,2013-05-26 16:07:00,
2013-05-26 17:12:00,67.5,39.6,30.00,WNW,298,0.0,1.0,36,0.00,,,0.00,529,WeatherCatV1.20B467,2013-05-26 16:12:00,
2013-05-26 17:17:00,67.4,40.2,30.00,WNW,301,7.0,7.0,37,0.00,,,0.00,540,WeatherCatV1.20B467,2013-05-26 16:17:00,
2013-05-26 17:22:00,66.9,41.1,30.00,NW,308,4.0,6.0,39,0.00,,,0.00,482,WeatherCatV1.20B467,2013-05-26 16:22:00,
2013-05-26 17:27:00,66.5,40.1,30.00,NW,308,3.0,6.0,38,0.00,,,0.00,494,WeatherCatV1.20B467,2013-05-26 16:27:00,
2013-05-26 17:32:00,67.2,39.3,30.00,NNW,329,1.0,4.0,36,0.00,,,0.00,492,WeatherCatV1.20B467,2013-05-26 16:32:00,
2013-05-26 17:37:00,66.5,39.4,29.99,NW,307,1.0,3.0,37,0.00,,,0.00,471,WeatherCatV1.20B467,2013-05-26 16:37:00,
2013-05-26 17:42:00,66.7,39.6,30.00,NW,309,6.0,7.0,37,0.00,,,0.00,462,WeatherCatV1.20B467,2013-05-26 16:42:00,
2013-05-26 17:47:00,67.6,40.4,29.99,NW,317,2.0,6.0,37,0.00,,,0.00,445,WeatherCatV1.20B467,2013-05-26 16:47:00,
2013-05-26 17:52:00,67.2,40.7,29.99,NW,306,2.0,4.0,38,0.00,,,0.00,425,WeatherCatV1.20B467,2013-05-26 16:52:00,
2013-05-26 17:57:00,66.8,39.0,29.99,WNW,292,3.0,4.0,36,0.00,,,0.00,401,WeatherCatV1.20B467,2013-05-26 16:57:00,
2013-05-26 18:02:00,65.9,39.6,29.99,NW,319,1.0,4.0,38,0.00,,,0.00,346,WeatherCatV1.20B467,2013-05-26 17:02:00,
2013-05-26 18:07:00,66.2,40.5,29.99,NW,306,7.0,7.0,39,0.00,,,0.00,413,WeatherCatV1.20B467,2013-05-26 17:07:00,
2013-05-26 18:12:00,66.0,39.7,29.98,East,98,0.0,2.0,38,0.00,,,0.00,385,WeatherCatV1.20B467,2013-05-26 17:12:00,
2013-05-26 18:17:00,66.9,41.1,29.98,NW,317,0.0,4.0,39,0.00,,,0.00,376,WeatherCatV1.20B467,2013-05-26 17:17:00,
2013-05-26 18:22:00,67.3,40.8,29.98,NNW,333,2.0,4.0,38,0.00,,,0.00,360,WeatherCatV1.20B467,2013-05-26 17:22:00,
2013-05-26 18:27:00,66.0,40.3,29.98,NW,326,0.0,9.0,39,0.00,,,0.00,327,WeatherCatV1.20B467,2013-05-26 17:27:00,
2013-05-26 18:32:00,66.6,40.9,29.98,NW,318,1.0,8.0,39,0.00,,,0.00,315,WeatherCatV1.20B467,2013-05-26 17:32:00,
2013-05-26 18:37:00,66.0,41.0,29.98,NW,321,1.0,2.0,40,0.00,,,0.00,297,WeatherCatV1.20B467,2013-05-26 17:37:00,
2013-05-26 18:42:00,65.4,40.4,29.98,NW,319,1.0,3.0,40,0.00,,,0.00,107,WeatherCatV1.20B467,2013-05-26 17:42:00,
2013-05-26 18:47:00,64.6,41.0,29.98,NW,321,2.0,3.0,42,0.00,,,0.00,142,WeatherCatV1.20B467,2013-05-26 17:47:00,
2013-05-26 18:52:00,64.8,41.2,29.98,WNW,303,5.0,6.0,42,0.00,,,0.00,167,WeatherCatV1.20B467,2013-05-26 17:52:00,
2013-05-26 18:57:00,64.6,41.6,29.98,NW,306,3.0,4.0,43,0.00,,,0.00,121,WeatherCatV1.20B467,2013-05-26 17:57:00,
2013-05-26 19:02:00,64.3,40.7,29.97,NW,324,2.0,8.0,42,0.00,,,0.00,98,WeatherCatV1.20B467,2013-05-26 18:02:00,
2013-05-26 19:07:00,63.8,41.5,29.97,NW,305,0.0,3.0,44,0.00,,,0.00,93,WeatherCatV1.20B467,2013-05-26 18:07:00,
2013-05-26 19:12:00,63.8,41.5,29.97,WNW,300,1.0,2.0,44,0.00,,,0.00,83,WeatherCatV1.20B467,2013-05-26 18:12:00,
2013-05-26 19:17:00,63.8,42.0,29.97,NW,324,2.0,5.0,45,0.00,,,0.00,72,WeatherCatV1.20B467,2013-05-26 18:17:00,
2013-05-26 19:22:00,63.6,41.3,29.97,NW,319,0.0,4.0,44,0.00,,,0.00,70,WeatherCatV1.20B467,2013-05-26 18:22:00,
2013-05-26 19:27:00,63.5,41.2,29.97,WNW,292,2.0,8.0,44,0.00,,,0.00,54,WeatherCatV1.20B467,2013-05-26 18:27:00,
2013-05-26 19:32:00,63.4,41.7,29.97,NW,312,1.0,3.0,45,0.00,,,0.00,76,WeatherCatV1.20B467,2013-05-26 18:32:00,
2013-05-26 19:37:00,63.3,41.0,29.97,NW,304,3.0,6.0,44,0.00,,,0.00,56,WeatherCatV1.20B467,2013-05-26 18:37:00,
2013-05-26 19:42:00,63.2,40.9,29.97,NW,304,4.0,6.0,44,0.00,,,0.00,62,WeatherCatV1.20B467,2013-05-26 18:42:00,
2013-05-26 19:47:00,62.9,41.2,29.97,NW,311,1.0,4.0,45,0.00,,,0.00,49,WeatherCatV1.20B467,2013-05-26 18:47:00,
2013-05-26 19:52:00,62.7,41.0,29.97,NW,317,1.0,4.0,45,0.00,,,0.00,47,WeatherCatV1.20B467,2013-05-26 18:52:00,
2013-05-26 19:57:00,62.5,40.9,29.97,NW,312,1.0,4.0,45,0.00,,,0.00,33,WeatherCatV1.20B467,2013-05-26 18:57:00,
2013-05-26 20:02:00,62.2,41.7,29.97,WNW,299,1.0,3.0,47,0.00,,,0.00,44,WeatherCatV1.20B467,2013-05-26 19:02:00,
2013-05-26 20:07:00,62.0,41.0,29.97,WNW,294,4.0,5.0,46,0.00,,,0.00,37,WeatherCatV1.20B467,2013-05-26 19:07:00,
2013-05-26 20:12:00,61.9,41.4,29.96,WNW,290,2.0,4.0,47,0.00,,,0.00,32,WeatherCatV1.20B467,2013-05-26 19:12:00,
2013-05-26 20:17:00,61.8,41.4,29.96,WNW,302,1.0,5.0,47,0.00,,,0.00,26,WeatherCatV1.20B467,2013-05-26 19:17:00,
2013-05-26 20:22:00,61.6,42.2,29.96,NW,322,0.0,2.0,49,0.00,,,0.00,23,WeatherCatV1.20B467,2013-05-26 19:22:00,
2013-05-26 20:27:00,61.4,42.1,29.96,NW,322,1.0,3.0,49,0.00,,,0.00,21,WeatherCatV1.20B467,2013-05-26 19:27:00,
2013-05-26 20:32:00,61.1,42.3,29.96,NW,322,0.0,3.0,50,0.00,,,0.00,18,WeatherCatV1.20B467,2013-05-26 19:32:00,
2013-05-26 20:37:00,60.8,42.0,29.96,NW,322,2.0,2.0,50,0.00,,,0.00,16,WeatherCatV1.20B467,2013-05-26 19:37:00,
2013-05-26 20:42:00,60.4,42.2,29.96,NW,323,0.0,1.0,51,0.00,,,0.00,12,WeatherCatV1.20B467,2013-05-26 19:42:00,
2013-05-26 20:47:00,60.2,42.5,29.96,NW,323,0.0,2.0,52,0.00,,,0.00,11,WeatherCatV1.20B467,2013-05-26 19:47:00,
2013-05-26 20:52:00,59.9,42.2,29.96,NW,323,0.0,1.0,52,0.00,,,0.00,9,WeatherCatV1.20B467,2013-05-26 19:52:00,
2013-05-26 20:57:00,59.6,42.4,29.96,NW,323,1.0,1.0,53,0.00,,,0.00,5,WeatherCatV1.20B467,2013-05-26 19:57:00,
2013-05-26 21:02:00,59.3,42.7,29.96,NW,323,0.0,0.0,54,0.00,,,0.00,0,WeatherCatV1.20B467,2013-05-26 20:02:00,
2013-05-26 21:07:00,59.0,42.9,29.95,NW,323,0.0,0.0,55,0.00,,,0.00,0,WeatherCatV1.20B467,2013-05-26 20:07:00,
2013-05-26 21:12:00,58.7,43.0,29.96,NW,323,0.0,0.0,56,0.00,,,0.00,0,WeatherCatV1.20B467,2013-05-26 20:12:00,
2013-05-26 21:17:00,58.4,43.2,29.96,NW,323,0.0,0.0,57,0.00,,,0.00,0,WeatherCatV1.20B467,2013-05-26 20:17:00,
2013-05-26 21:22:00,58.0,42.9,29.96,NW,323,0.0,0.0,57,0.00,,,0.00,0,WeatherCatV1.20B467,2013-05-26 20:22:00,
2013-05-26 21:27:00,57.6,42.5,29.96,NW,323,0.0,0.0,57,0.00,,,0.00,0,WeatherCatV1.20B467,2013-05-26 20:27:00,
2013-05-26 21:32:00,57.2,42.6,29.96,NW,323,0.0,1.0,58,0.00,,,0.00,0,WeatherCatV1.20B467,2013-05-26 20:32:00,
2013-05-26 21:37:00,56.8,42.6,29.96,NW,323,0.0,1.0,59,0.00,,,0.00,0,WeatherCatV1.20B467,2013-05-26 20:37:00,
2013-05-26 21:42:00,56.4,42.3,29.96,NW,323,0.0,0.0,59,0.00,,,0.00,0,WeatherCatV1.20B467,2013-05-26 20:42:00,
2013-05-26 21:47:00,56.2,42.1,29.96,NW,323,0.0,0.0,59,0.00,,,0.00,0,WeatherCatV1.20B467,2013-05-26 20:47:00,
2013-05-26 21:52:00,56.1,42.0,29.96,NW,323,0.0,0.0,59,0.00,,,0.00,0,WeatherCatV1.20B467,2013-05-26 20:52:00,
2013-05-26 21:57:00,55.9,41.8,29.96,NW,323,0.0,1.0,59,0.00,,,0.00,0,WeatherCatV1.20B467,2013-05-26 20:57:00,
2013-05-26 22:02:00,55.7,41.6,29.96,NW,323,0.0,0.0,59,0.00,,,0.00,0,WeatherCatV1.20B467,2013-05-26 21:02:00,
2013-05-26 22:07:00,55.6,41.5,29.95,NW,323,0.0,0.0,59,0.00,,,0.00,0,WeatherCatV1.20B467,2013-05-26 21:07:00,
2013-05-26 22:12:00,55.3,41.2,29.95,NW,323,0.0,0.0,59,0.00,,,0.00,0,WeatherCatV1.20B467,2013-05-26 21:12:00,
2013-05-26 22:17:00,55.1,41.0,29.95,NW,323,0.0,0.0,59,0.00,,,0.00,0,WeatherCatV1.20B467,2013-05-26 21:17:00,
2013-05-26 22:22:00,54.9,40.8,29.95,NW,323,0.0,0.0,59,0.00,,,0.00,0,WeatherCatV1.20B467,2013-05-26 21:22:00,
2013-05-26 22:27:00,54.8,40.7,29.95,NW,323,0.0,0.0,59,0.00,,,0.00,0,WeatherCatV1.20B467,2013-05-26 21:27:00,
2013-05-26 22:32:00,54.7,41.1,29.95,NW,323,0.0,1.0,60,0.00,,,0.00,0,WeatherCatV1.20B467,2013-05-26 21:32:00,
2013-05-26 22:37:00,54.5,41.7,29.95,NW,323,0.0,0.0,62,0.00,,,0.00,0,WeatherCatV1.20B467,2013-05-26 21:37:00,
2013-05-26 22:42:00,54.1,41.4,29.95,NW,323,0.0,1.0,62,0.00,,,0.00,0,WeatherCatV1.20B467,2013-05-26 21:42:00,
2013-05-26 22:47:00,54.0,41.7,29.95,NW,323,2.0,3.0,63,0.00,,,0.00,0,WeatherCatV1.20B467,2013-05-26 21:47:00,
2013-05-26 22:52:00,53.8,41.9,29.95,NW,323,1.0,3.0,64,0.00,,,0.00,0,WeatherCatV1.20B467,2013-05-26 21:52:00,
2013-05-26 22:57:00,53.7,42.2,29.95,NW,323,1.0,3.0,65,0.00,,,0.00,0,WeatherCatV1.20B467,2013-05-26 21:57:00,
2013-05-26 23:02:00,53.5,42.4,29.95,NW,323,0.0,2.0,66,0.00,,,0.00,0,WeatherCatV1.20B467,2013-05-26 22:02:00,
2013-05-26 23:07:00,53.2,42.5,29.95,NW,323,0.0,4.0,67,0.00,,,0.00,0,WeatherCatV1.20B467,2013-05-26 22:07:00,
2013-05-26 23:12:00,53.0,42.3,29.95,NW,323,2.0,2.0,67,0.00,,,0.00,0,WeatherCatV1.20B467,2013-05-26 22:12:00,
2013-05-26 23:17:00,52.8,42.5,29.95,NW,315,5.0,5.0,68,0.00,,,0.00,0,WeatherCatV1.20B467,2013-05-26 22:17:00,
2013-05-26 23:22:00,52.7,42.8,29.95,NW,315,2.0,4.0,69,0.00,,,0.00,0,WeatherCatV1.20B467,2013-05-26 22:22:00,
2013-05-26 23:27:00,52.4,42.5,29.95,NW,321,1.0,3.0,69,0.00,,,0.00,0,WeatherCatV1.20B467,2013-05-26 22:27:00,
2013-05-26 23:32:00,52.2,42.7,29.95,NW,321,0.0,2.0,70,0.00,,,0.00,0,WeatherCatV1.20B467,2013-05-26 22:32:00,
2013-05-26 23:37:00,52.0,42.5,29.95,NW,321,0.0,3.0,70,0.00,,,0.00,0,WeatherCatV1.20B467,2013-05-26 22:37:00,
2013-05-26 23:42:00,51.7,42.6,29.95,NW,321,0.0,1.0,71,0.00,,,0.00,0,WeatherCatV1.20B467,2013-05-26 22:42:00,
2013-05-26 23:47:00,51.5,42.4,29.95,NW,318,0.0,4.0,71,0.00,,,0.00,0,WeatherCatV1.20B467,2013-05-26 22:47:00,
2013-05-26 23:52:00,51.3,42.6,29.95,NW,318,0.0,3.0,72,0.00,,,0.00,0,WeatherCatV1.20B467,2013-05-26 22:52:00,
2013-05-26 23:57:00,51.1,42.8,29.95,NW,320,0.0,0.0,73,0.00,,,0.00,0,WeatherCatV1.20B467,2013-05-26 22:57:00,